When you browse on this site, cookies collect data to enhance your experience and personalize the content and advertising you see.
Visit our Privacy Policy to learn more. By continuing to use the site, you agree to this use of cookies and data.
  • Em Portugal
  • Lista de países
  • Para 7 dias
  • Temperatura da água
  • Mapa do tempo
  • Widgets de tempo
  • user-avatar
    Iniciar Sessão

    Previsão horária em Marsa al-Burajka

    Hoje, 2 Abril, Quinta-feira

    Tempo Temperatura Precipitação Vento Pressão Humidade
    00:00 +18°C° 0 mm 2 m/s 761 mmHg 45%
    01:00 +17°C° 0 mm 2 m/s 760 mmHg 42%
    02:00 +17°C° 0 mm 2 m/s 760 mmHg 41%
    03:00 +17°C° 0 mm 3 m/s 760 mmHg 40%
    04:00 +17°C° 0 mm 3 m/s 760 mmHg 39%
    05:00 +17°C° 0 mm 4 m/s 760 mmHg 37%
    06:00 +18°C° 0 mm 4 m/s 760 mmHg 35%
    07:00 +17°C° 0 mm 5 m/s 760 mmHg 33%
    08:00 +20°C° 0 mm 5 m/s 760 mmHg 31%
    09:00 +22°C° 0 mm 5 m/s 760 mmHg 28%
    10:00 +25°C° 0 mm 4 m/s 760 mmHg 26%
    11:00 +26°C° 0 mm 4 m/s 760 mmHg 25%
    12:00 +27°C° 0 mm 3 m/s 759 mmHg 24%
    13:00 +29°C° 0 mm 3 m/s 759 mmHg 23%
    14:00 +29°C° 0 mm 3 m/s 758 mmHg 22%
    15:00 +29°C° 0 mm 3 m/s 757 mmHg 21%
    16:00 +30°C° 0 mm 3 m/s 757 mmHg 20%
    17:00 +29°C° 0 mm 3 m/s 757 mmHg 21%
    18:00 +28°C° 0 mm 3 m/s 757 mmHg 22%
    19:00 +27°C° 0 mm 3 m/s 757 mmHg 22%
    20:00 +26°C° 0 mm 5 m/s 757 mmHg 23%
    21:00 +26°C° 0 mm 6 m/s 757 mmHg 24%
    22:00 +24°C° 0 mm 7 m/s 757 mmHg 25%
    23:00 +24°C° 0 mm 8 m/s 756 mmHg 25%

    Amanhã, 3 Abril, Sexta-feira

    Tempo Temperatura Precipitação Vento Pressão Humidade
    00:00 +23°C° 0 mm 8 m/s 756 mmHg 25%
    01:00 +23°C° 0 mm 9 m/s 755 mmHg 25%
    02:00 +22°C° 0 mm 9 m/s 755 mmHg 25%
    03:00 +22°C° 0 mm 9 m/s 755 mmHg 24%
    04:00 +22°C° 0 mm 9 m/s 754 mmHg 23%
    05:00 +22°C° 0 mm 9 m/s 754 mmHg 23%
    06:00 +22°C° 0 mm 9 m/s 754 mmHg 23%
    07:00 +23°C° 0 mm 9 m/s 754 mmHg 22%
    08:00 +26°C° 0 mm 9 m/s 754 mmHg 20%
    09:00 +28°C° 0 mm 10 m/s 754 mmHg 18%
    10:00 +31°C° 0 mm 10 m/s 754 mmHg 16%
    11:00 +33°C° 0 mm 10 m/s 754 mmHg 15%
    12:00 +34°C° 0 mm 9 m/s 753 mmHg 14%
    13:00 +37°C° 0 mm 9 m/s 752 mmHg 13%
    14:00 +37°C° 0 mm 8 m/s 752 mmHg 12%
    15:00 +37°C° 0 mm 8 m/s 751 mmHg 12%
    16:00 +38°C° 0 mm 7 m/s 750 mmHg 12%
    17:00 +36°C° 0 mm 7 m/s 750 mmHg 13%
    18:00 +34°C° 0 mm 7 m/s 750 mmHg 14%
    19:00 +33°C° 0 mm 7 m/s 750 mmHg 15%
    20:00 +32°C° 0 mm 7 m/s 750 mmHg 15%
    21:00 +32°C° 0 mm 7 m/s 750 mmHg 16%
    22:00 +30°C° 0 mm 7 m/s 750 mmHg 16%
    23:00 +30°C° 0 mm 7 m/s 749 mmHg 17%

    Depois de amanhã, 4 Abril, Sábado

    Tempo Temperatura Precipitação Vento Pressão Humidade
    00:00 +29°C° 0 mm 7 m/s 749 mmHg 17%
    01:00 +28°C° 0 mm 7 m/s 749 mmHg 17%
    02:00 +28°C° 0 mm 7 m/s 749 mmHg 19%
    03:00 +27°C° 0 mm 6 m/s 749 mmHg 20%
    04:00 +27°C° 0 mm 5 m/s 749 mmHg 21%
    05:00 +24°C° 0 mm 7 m/s 750 mmHg 39%
    06:00 +22°C° 0 mm 8 m/s 750 mmHg 57%
    07:00 +19°C° 0 mm 10 m/s 751 mmHg 75%
    08:00 +19°C° 0 mm 10 m/s 752 mmHg 74%
    09:00 +19°C° 0 mm 11 m/s 752 mmHg 72%
    10:00 +21°C° 0 mm 11 m/s 753 mmHg 71%
    11:00 +21°C° 0 mm 12 m/s 754 mmHg 70%
    12:00 +21°C° 0 mm 12 m/s 754 mmHg 69%
    13:00 +20°C° 0 mm 13 m/s 754 mmHg 68%
    14:00 +19°C° 0 mm 13 m/s 754 mmHg 67%
    15:00 +19°C° 0 mm 13 m/s 754 mmHg 67%
    16:00 +19°C° 0 mm 13 m/s 755 mmHg 66%
    17:00 +18°C° 0 mm 13 m/s 755 mmHg 67%
    18:00 +18°C° 0 mm 12 m/s 756 mmHg 69%
    19:00 +18°C° 0 mm 12 m/s 756 mmHg 70%
    20:00 +17°C° 0 mm 11 m/s 757 mmHg 71%
    21:00 +17°C° 0 mm 10 m/s 757 mmHg 72%
    22:00 +17°C° 0 mm 8 m/s 758 mmHg 73%
    23:00 +17°C° 0 mm 9 m/s 758 mmHg 75%

    5 Abril, Domingo

    Tempo Temperatura Precipitação Vento Pressão Humidade
    00:00 +17°C° 0 mm 10 m/s 758 mmHg 78%
    01:00 +17°C° 0 mm 10 m/s 758 mmHg 80%
    02:00 +17°C° 0 mm 10 m/s 759 mmHg 79%
    03:00 +17°C° 0 mm 10 m/s 759 mmHg 77%
    04:00 +16°C° 0 mm 10 m/s 759 mmHg 76%
    05:00 +16°C° 0 mm 10 m/s 759 mmHg 73%
    06:00 +16°C° 0 mm 9 m/s 760 mmHg 69%
    07:00 +16°C° 0 mm 9 m/s 760 mmHg 66%
    08:00 +17°C° 0 mm 9 m/s 761 mmHg 64%
    09:00 +17°C° 0 mm 9 m/s 762 mmHg 61%
    10:00 +18°C° 0 mm 8 m/s 762 mmHg 58%
    11:00 +18°C° 0 mm 8 m/s 762 mmHg 57%
    12:00 +18°C° 0 mm 8 m/s 762 mmHg 56%
    13:00 +20°C° 0 mm 8 m/s 762 mmHg 54%
    14:00 +18°C° 0 mm 8 m/s 762 mmHg 57%
    15:00 +18°C° 0 mm 8 m/s 761 mmHg 59%
    16:00 +18°C° 0 mm 8 m/s 761 mmHg 61%
    17:00 +17°C° 0 mm 7 m/s 762 mmHg 63%
    18:00 +17°C° 0 mm 7 m/s 762 mmHg 66%
    19:00 +17°C° 0 mm 6 m/s 762 mmHg 68%
    20:00 +16°C° 0 mm 6 m/s 763 mmHg 70%
    21:00 +16°C° 0 mm 5 m/s 763 mmHg 72%
    22:00 +16°C° 0 mm 5 m/s 764 mmHg 74%
    23:00 +16°C° 0 mm 5 m/s 763 mmHg 74%

    6 Abril, Segunda-feira

    Tempo Temperatura Precipitação Vento Pressão Humidade
    00:00 +15°C° 0 mm 4 m/s 763 mmHg 73%
    01:00 +15°C° 0 mm 4 m/s 763 mmHg 73%
    02:00 +15°C° 0 mm 4 m/s 763 mmHg 73%
    03:00 +15°C° 0 mm 4 m/s 763 mmHg 73%
    04:00 +14°C° 0 mm 4 m/s 763 mmHg 73%
    05:00 +15°C° 0 mm 5 m/s 763 mmHg 71%
    06:00 +15°C° 0 mm 5 m/s 763 mmHg 69%
    07:00 +16°C° 0 mm 6 m/s 764 mmHg 68%
    08:00 +16°C° 0 mm 6 m/s 764 mmHg 63%
    09:00 +17°C° 0 mm 6 m/s 764 mmHg 59%
    10:00 +17°C° 0 mm 6 m/s 765 mmHg 55%
    11:00 +18°C° 0 mm 7 m/s 764 mmHg 54%
    12:00 +18°C° 0 mm 7 m/s 764 mmHg 54%
    13:00 +20°C° 0 mm 7 m/s 764 mmHg 53%
    14:00 +18°C° 0 mm 8 m/s 764 mmHg 56%
    15:00 +18°C° 0 mm 8 m/s 764 mmHg 59%
    16:00 +18°C° 0 mm 8 m/s 763 mmHg 62%
    17:00 +17°C° 0 mm 8 m/s 764 mmHg 64%
    18:00 +17°C° 0 mm 8 m/s 764 mmHg 66%
    19:00 +16°C° 0 mm 7 m/s 764 mmHg 68%
    20:00 +16°C° 0 mm 7 m/s 764 mmHg 68%
    21:00 +16°C° 0 mm 6 m/s 765 mmHg 69%
    22:00 +16°C° 0 mm 6 m/s 765 mmHg 70%
    23:00 +15°C° 0 mm 6 m/s 765 mmHg 71%

    7 Abril, Terça-feira

    Tempo Temperatura Precipitação Vento Pressão Humidade
    00:00 +15°C° 0 mm 5 m/s 765 mmHg 72%
    01:00 +15°C° 0 mm 5 m/s 765 mmHg 73%
    02:00 +15°C° 0 mm 5 m/s 764 mmHg 75%
    03:00 +14°C° 0 mm 5 m/s 764 mmHg 76%
    04:00 +14°C° 0 mm 5 m/s 764 mmHg 78%
    05:00 +15°C° 0 mm 5 m/s 764 mmHg 75%
    06:00 +15°C° 0 mm 5 m/s 764 mmHg 73%
    07:00 +16°C° 0 mm 5 m/s 765 mmHg 70%
    08:00 +16°C° 0 mm 5 m/s 765 mmHg 65%
    09:00 +17°C° 0 mm 5 m/s 765 mmHg 61%
    10:00 +17°C° 0 mm 5 m/s 765 mmHg 56%
    11:00 +19°C° 0 mm 6 m/s 765 mmHg 54%
    12:00 +19°C° 0 mm 6 m/s 764 mmHg 53%
    13:00 +18°C° 0 mm 7 m/s 764 mmHg 51%
    14:00 +18°C° 0 mm 7 m/s 764 mmHg 54%
    15:00 +17°C° 0 mm 7 m/s 763 mmHg 56%
    16:00 +17°C° 0 mm 7 m/s 763 mmHg 58%
    17:00 +17°C° 0 mm 7 m/s 763 mmHg 61%
    18:00 +16°C° 0 mm 7 m/s 763 mmHg 64%
    19:00 +16°C° 0 mm 7 m/s 764 mmHg 67%
    20:00 +16°C° 0 mm 6 m/s 764 mmHg 68%
    21:00 +16°C° 0 mm 6 m/s 764 mmHg 69%
    22:00 +15°C° 0 mm 5 m/s 765 mmHg 70%
    23:00 +15°C° 0 mm 5 m/s 765 mmHg 68%
    Mostrar mais